Weather History for Kingston / Norman Manley, Jamaica

Change the Weather History Date:

Saturday, March 15, 2014

  Actual Average Record
Temperature  
Mean Temperature 82 °F -  
Max Temperature 89 °F 84 °F - ()
Min Temperature 74 °F 76 °F - ()
Cooling Degree Days 16    
Growing Degree Days 32 (Base 50)    
Moisture  
Dew Point 73 °F    
Average Humidity 76    
Maximum Humidity 89    
Minimum Humidity 52    
Precipitation  
Precipitation 0.00 in - - ()
Sea Level Pressure  
Sea Level Pressure 29.93 in    
Wind  
Wind Speed 6 mph ()    
Max Wind Speed 23 mph    
Max Gust Speed -    
Visibility 7.7 miles    
Events      
T = Trace of Precipitation, MM = Missing Value Source: Averaged Metar Reports

Daily Weather History Graph

Daily Weather History Graph

Search for Another Location

Airport:

Trip Planner

Search our weather history database for the weather conditions in past years. The results will help you decide how hot, cold, wet, or windy it might be!

Date:

Astronomy

Mar. 15, 2014 Rise Set
Actual Time 6:15 AM EST 6:17 PM EST
Civil Twilight 5:53 AM EST 6:38 PM EST
Nautical Twilight 5:28 AM EST 7:03 PM EST
Astronomical Twilight 5:03 AM EST 7:29 PM EST
Moon 5:35 PM EST (3/15) 5:20 AM EST (3/15)
Length of Visible Light 12h 45m
Length of Day
12h 01m
Waxing Gibbous, 99% of the Moon is Illuminated
Mar 15
Waxing Gibbous
Mar 16
Full
Mar 23
Last Quarter
Mar 30
New
Apr 7
First Quarter

Hourly Weather History & Observations

Time (EST) Temp. Heat Index Dew Point Humidity Pressure Visibility Wind Dir Wind Speed Gust Speed Precip Events Conditions
12:00 AM 78.8 °F - 68.0 °F 69% 29.98 in 6.2 mi Variable 2.3 mph - N/A   Scattered Clouds
1:00 AM 78 °F - 72 °F 77% 29.96 in 14 mi ENE 4.6 mph - -   Haze
1:00 AM 77.0 °F - 71.6 °F 83% 29.95 in 6.2 mi ENE 4.6 mph - N/A   Partly Cloudy
2:00 AM 78.8 °F - 68.0 °F 69% 29.92 in 6.2 mi North 5.8 mph - N/A   Scattered Clouds
3:00 AM 77.0 °F - 69.8 °F 78% 29.92 in 6.2 mi ENE 3.5 mph - N/A   Partly Cloudy
4:00 AM 77 °F - 69 °F 71% 29.92 in 14 mi WNW 3.5 mph - -   Haze
4:00 AM 77.0 °F - 69.8 °F 78% 29.92 in 6.2 mi WNW 3.5 mph - N/A   Partly Cloudy
5:00 AM 75.2 °F - 69.8 °F 83% 29.92 in - West 3.5 mph - N/A   Partly Cloudy
6:00 AM 75.2 °F - 69.8 °F 83% 29.92 in 6.2 mi West 3.5 mph - N/A   Partly Cloudy
7:00 AM 77 °F - 73 °F 83% 29.96 in 4 mi 2.3 mph - -   Haze
7:00 AM 77.0 °F - 73.4 °F 89% 29.95 in 6.2 mi Variable 2.3 mph - N/A   Partly Cloudy
8:00 AM 82.4 °F 86.3 °F 69.8 °F 66% 29.98 in 6.2 mi NNE 3.5 mph - N/A   Partly Cloudy
9:00 AM 82.4 °F 89.5 °F 75.2 °F 79% 29.98 in 6.2 mi South 4.6 mph - N/A   Partly Cloudy
10:00 AM 84 °F - 75 °F 68% 30.00 in 14 mi SW 6.9 mph - -   Haze
10:00 AM 84.2 °F 92.3 °F 75.2 °F 74% 29.98 in 6.2 mi SW 6.9 mph - N/A   Partly Cloudy
11:00 AM 86.0 °F 93.4 °F 73.4 °F 66% 29.98 in 6.2 mi SSW 8.1 mph - N/A   Partly Cloudy
12:00 PM 86.0 °F 93.4 °F 73.4 °F 66% 29.95 in 6.2 mi SSW 10.4 mph - N/A   Partly Cloudy
1:00 PM 88 °F - 73 °F 52% 29.94 in 16 mi South 11.5 mph - -   Haze
1:00 PM 87.8 °F 95.6 °F 73.4 °F 62% 29.92 in 6.2 mi South 11.5 mph - N/A   Scattered Clouds
2:00 PM 84.2 °F 92.3 °F 75.2 °F 74% 29.89 in 6.2 mi SE 23.0 mph - N/A   Scattered Clouds
3:00 PM 86.0 °F 96.9 °F 77.0 °F 74% 29.89 in 6.2 mi SE 21.9 mph - N/A   Scattered Clouds
4:00 PM 84 °F - 76 °F 70% 29.88 in 11 mi SE 19.6 mph - -   Mostly Cloudy
4:00 PM 84.2 °F 92.3 °F 75.2 °F 74% 29.86 in 6.2 mi SE 19.6 mph - N/A   Mostly Cloudy
5:00 PM 84.2 °F 94.1 °F 77.0 °F 79% 29.86 in 6.2 mi NW 4.6 mph - N/A   Mostly Cloudy
6:00 PM 80.6 °F 87.1 °F 77.0 °F 89% 29.89 in 6.2 mi NW 12.7 mph - N/A   Partly Cloudy
7:00 PM 80 °F - 74 °F 77% 29.91 in 12 mi NW 13.8 mph - -   Haze
7:00 PM 80.6 °F 85.4 °F 73.4 °F 79% 29.89 in 6.2 mi NW 13.8 mph - N/A   Partly Cloudy
8:00 PM 78.8 °F - 75.2 °F 89% 29.92 in 6.2 mi NW 9.2 mph - N/A   Partly Cloudy
9:00 PM 78.8 °F - 73.4 °F 83% 29.95 in 6.2 mi NNW 3.5 mph - N/A   Partly Cloudy
10:00 PM 78 °F - 75 °F 86% 29.96 in 12 mi SSE 4.6 mph - -   Haze
10:00 PM 78.8 °F - 75.2 °F 89% 29.95 in 6.2 mi SSE 4.6 mph - N/A   Partly Cloudy
11:00 PM 78.8 °F - 73.4 °F 83% 29.95 in 6.2 mi North 4.6 mph - N/A   Partly Cloudy